1591048802,2020-06-02 00:00,436.00,-37
1591048862,2020-06-02 00:01,436.00,-28
1591048922,2020-06-02 00:02,434.00,-32
1591048982,2020-06-02 00:03,435.00,-35
1591049042,2020-06-02 00:04,435.00,-32
1591049102,2020-06-02 00:05,433.00,-29
1591049162,2020-06-02 00:06,431.00,-29
1591049223,2020-06-02 00:07,436.00,-29
1591049283,2020-06-02 00:08,437.00,-29
1591049343,2020-06-02 00:09,434.00,-30
1591049403,2020-06-02 00:10,438.00,-32
1591049463,2020-06-02 00:11,434.00,-33
1591049523,2020-06-02 00:12,435.00,-29
1591049583,2020-06-02 00:13,432.00,-31
1591049643,2020-06-02 00:14,434.00,-33
1591049704,2020-06-02 00:15,434.00,-32
1591049764,2020-06-02 00:16,433.00,-27
1591049824,2020-06-02 00:17,434.00,-29
1591049884,2020-06-02 00:18,435.00,-27
1591049944,2020-06-02 00:19,432.00,-27
1591050004,2020-06-02 00:20,433.00,-31
1591050064,2020-06-02 00:21,432.00,-34
1591050124,2020-06-02 00:22,434.00,-32
1591050185,2020-06-02 00:23,434.00,-30
1591050245,2020-06-02 00:24,432.00,-30
1591050305,2020-06-02 00:25,432.00,-31
1591050365,2020-06-02 00:26,434.00,-29
1591050425,2020-06-02 00:27,436.00,-29
1591050485,2020-06-02 00:28,434.00,-31
1591050545,2020-06-02 00:29,433.00,-28
1591050606,2020-06-02 00:30,434.00,-32
1591050666,2020-06-02 00:31,433.00,-32
1591050726,2020-06-02 00:32,432.00,-31
1591050786,2020-06-02 00:33,434.00,-34
1591050846,2020-06-02 00:34,433.00,-29
1591050906,2020-06-02 00:35,432.00,-31
1591050966,2020-06-02 00:36,431.00,-35
1591051026,2020-06-02 00:37,432.00,-31
1591051086,2020-06-02 00:38,435.00,-30
1591051146,2020-06-02 00:39,435.00,-29
1591051206,2020-06-02 00:40,436.00,-30
1591051266,2020-06-02 00:41,435.00,-30
1591051326,2020-06-02 00:42,433.00,-30
1591051386,2020-06-02 00:43,433.00,-34
1591051446,2020-06-02 00:44,432.00,-29
1591051507,2020-06-02 00:45,433.00,-29
1591051567,2020-06-02 00:46,435.00,-29
1591051627,2020-06-02 00:47,430.00,-27
1591051687,2020-06-02 00:48,431.00,-29
1591051747,2020-06-02 00:49,431.00,-27
1591051807,2020-06-02 00:50,430.00,-33
1591051867,2020-06-02 00:51,434.00,-30
1591051927,2020-06-02 00:52,432.00,-28
1591051987,2020-06-02 00:53,433.00,-33
1591052047,2020-06-02 00:54,433.00,-27
1591052107,2020-06-02 00:55,435.00,-28
1591052167,2020-06-02 00:56,430.00,-30
1591052227,2020-06-02 00:57,432.00,-26
1591052287,2020-06-02 00:58,435.00,-30
1591052347,2020-06-02 00:59,434.00,-29
1591052408,2020-06-02 01:00,431.00,-29
1591052468,2020-06-02 01:01,434.00,-29
1591052528,2020-06-02 01:02,431.00,-28
1591052588,2020-06-02 01:03,433.00,-32
1591052648,2020-06-02 01:04,436.00,-28
1591052708,2020-06-02 01:05,434.00,-29
1591052768,2020-06-02 01:06,433.00,-29
1591052828,2020-06-02 01:07,436.00,-29
1591052888,2020-06-02 01:08,433.00,-27
1591052949,2020-06-02 01:09,436.00,-28
1591053009,2020-06-02 01:10,435.00,-27
1591053069,2020-06-02 01:11,436.00,-29
1591053129,2020-06-02 01:12,433.00,-29
1591053189,2020-06-02 01:13,435.00,-29
1591053249,2020-06-02 01:14,433.00,-30
1591053309,2020-06-02 01:15,433.00,-30
1591053369,2020-06-02 01:16,434.00,-31
1591053429,2020-06-02 01:17,433.00,-27
1591053489,2020-06-02 01:18,436.00,-32
1591053549,2020-06-02 01:19,437.00,-28
1591053609,2020-06-02 01:20,435.00,-30
1591053669,2020-06-02 01:21,436.00,-27
1591053729,2020-06-02 01:22,440.00,-29
1591053789,2020-06-02 01:23,436.00,-32
1591053849,2020-06-02 01:24,437.00,-29
1591053909,2020-06-02 01:25,436.00,-28
1591053969,2020-06-02 01:26,436.00,-31
1591054030,2020-06-02 01:27,438.00,-29
1591054090,2020-06-02 01:28,436.00,-29
1591054150,2020-06-02 01:29,435.00,-34
1591054210,2020-06-02 01:30,439.00,-30
1591054270,2020-06-02 01:31,437.00,-30
1591054330,2020-06-02 01:32,435.00,-29
1591054390,2020-06-02 01:33,440.00,-29
1591054450,2020-06-02 01:34,437.00,-27
1591054510,2020-06-02 01:35,435.00,-29
1591054570,2020-06-02 01:36,436.00,-31
1591054630,2020-06-02 01:37,436.00,-30
1591054690,2020-06-02 01:38,435.00,-29
1591054750,2020-06-02 01:39,436.00,-27
1591054810,2020-06-02 01:40,434.00,-30
1591054871,2020-06-02 01:41,436.00,-30
1591054931,2020-06-02 01:42,437.00,-28
1591054991,2020-06-02 01:43,435.00,-29
1591055051,2020-06-02 01:44,435.00,-33
1591055111,2020-06-02 01:45,435.00,-29
1591055171,2020-06-02 01:46,433.00,-28
1591055231,2020-06-02 01:47,435.00,-30
1591055291,2020-06-02 01:48,436.00,-27
1591055351,2020-06-02 01:49,430.00,-35
1591055411,2020-06-02 01:50,435.00,-32
1591055471,2020-06-02 01:51,434.00,-28
1591055532,2020-06-02 01:52,433.00,-28
1591055592,2020-06-02 01:53,433.00,-27
1591055652,2020-06-02 01:54,436.00,-29
1591055712,2020-06-02 01:55,435.00,-30
1591055772,2020-06-02 01:56,432.00,-27
1591055832,2020-06-02 01:57,434.00,-28
1591055892,2020-06-02 01:58,433.00,-30
1591055952,2020-06-02 01:59,434.00,-33
1591056012,2020-06-02 02:00,435.00,-31
1591056072,2020-06-02 02:01,435.00,-32
1591056132,2020-06-02 02:02,434.00,-28
1591056192,2020-06-02 02:03,436.00,-30
1591056252,2020-06-02 02:04,438.00,-33
1591056312,2020-06-02 02:05,433.00,-31
1591056372,2020-06-02 02:06,433.00,-29
1591056433,2020-06-02 02:07,433.00,-28
1591056493,2020-06-02 02:08,433.00,-32
1591056553,2020-06-02 02:09,433.00,-30
1591056613,2020-06-02 02:10,431.00,-30
1591056673,2020-06-02 02:11,434.00,-34
1591056733,2020-06-02 02:12,434.00,-27
1591056793,2020-06-02 02:13,432.00,-31
1591056853,2020-06-02 02:14,437.00,-32
1591056913,2020-06-02 02:15,433.00,-30
1591056973,2020-06-02 02:16,434.00,-29
1591057033,2020-06-02 02:17,434.00,-28
1591057093,2020-06-02 02:18,434.00,-27
1591057153,2020-06-02 02:19,434.00,-29
1591057214,2020-06-02 02:20,435.00,-31
1591057274,2020-06-02 02:21,435.00,-30
1591057334,2020-06-02 02:22,433.00,-31
1591057394,2020-06-02 02:23,433.00,-29
1591057454,2020-06-02 02:24,433.00,-31
1591057514,2020-06-02 02:25,434.00,-33
1591057574,2020-06-02 02:26,435.00,-29
1591057634,2020-06-02 02:27,433.00,-29
1591057694,2020-06-02 02:28,434.00,-34
1591057754,2020-06-02 02:29,432.00,-30
1591057814,2020-06-02 02:30,434.00,-31
1591057874,2020-06-02 02:31,434.00,-31
1591057935,2020-06-02 02:32,434.00,-31
1591057995,2020-06-02 02:33,435.00,-31
1591058055,2020-06-02 02:34,434.00,-31
1591058115,2020-06-02 02:35,434.00,-33
1591058175,2020-06-02 02:36,434.00,-29
1591058235,2020-06-02 02:37,436.00,-28
1591058295,2020-06-02 02:38,434.00,-31
1591058355,2020-06-02 02:39,436.00,-29
1591058415,2020-06-02 02:40,433.00,-31
1591058475,2020-06-02 02:41,435.00,-27
1591058535,2020-06-02 02:42,438.00,-36
1591058595,2020-06-02 02:43,438.00,-32
1591058655,2020-06-02 02:44,437.00,-28
1591058715,2020-06-02 02:45,437.00,-36
1591058775,2020-06-02 02:46,439.00,-35
1591058835,2020-06-02 02:47,438.00,-36
1591058896,2020-06-02 02:48,442.00,-37
1591058956,2020-06-02 02:49,440.00,-31
1591059016,2020-06-02 02:50,440.00,-27
1591059076,2020-06-02 02:51,441.00,-31
1591059136,2020-06-02 02:52,439.00,-33
1591059196,2020-06-02 02:53,437.00,-30
1591059256,2020-06-02 02:54,439.00,-28
1591059316,2020-06-02 02:55,436.00,-30
1591059376,2020-06-02 02:56,439.00,-31
1591059436,2020-06-02 02:57,437.00,-32
1591059496,2020-06-02 02:58,438.00,-30
1591059556,2020-06-02 02:59,440.00,-35
1591059616,2020-06-02 03:00,440.00,-30
1591059676,2020-06-02 03:01,439.00,-30
1591059736,2020-06-02 03:02,441.00,-27
1591059796,2020-06-02 03:03,440.00,-31
1591059856,2020-06-02 03:04,441.00,-27
1591059916,2020-06-02 03:05,443.00,-31
1591059976,2020-06-02 03:06,441.00,-28
1591060036,2020-06-02 03:07,442.00,-34
1591060097,2020-06-02 03:08,443.00,-32
1591060157,2020-06-02 03:09,442.00,-33
1591060217,2020-06-02 03:10,443.00,-30
1591060277,2020-06-02 03:11,434.00,-28
1591060337,2020-06-02 03:12,431.00,-29
1591060397,2020-06-02 03:13,435.00,-29
1591060457,2020-06-02 03:14,435.00,-30
1591060517,2020-06-02 03:15,436.00,-31
1591060577,2020-06-02 03:16,435.00,-27
1591060637,2020-06-02 03:17,433.00,-30
1591060697,2020-06-02 03:18,435.00,-28
1591060757,2020-06-02 03:19,434.00,-32
1591060817,2020-06-02 03:20,434.00,-28
1591060877,2020-06-02 03:21,432.00,-30
1591060937,2020-06-02 03:22,433.00,-26
1591060997,2020-06-02 03:23,432.00,-28
1591061057,2020-06-02 03:24,433.00,-29
1591061117,2020-06-02 03:25,433.00,-29
1591061177,2020-06-02 03:26,430.00,-26
1591061237,2020-06-02 03:27,432.00,-33
1591061297,2020-06-02 03:28,432.00,-29
1591061358,2020-06-02 03:29,432.00,-32
1591061418,2020-06-02 03:30,432.00,-33
1591061478,2020-06-02 03:31,431.00,-28
1591061538,2020-06-02 03:32,432.00,-29
1591061598,2020-06-02 03:33,431.00,-29
1591061658,2020-06-02 03:34,432.00,-28
1591061718,2020-06-02 03:35,433.00,-28
1591061778,2020-06-02 03:36,430.00,-30
1591061838,2020-06-02 03:37,431.00,-27
1591061898,2020-06-02 03:38,433.00,-27
1591061958,2020-06-02 03:39,432.00,-31
1591062018,2020-06-02 03:40,433.00,-35
1591062078,2020-06-02 03:41,430.00,-32
1591062138,2020-06-02 03:42,436.00,-32
1591062198,2020-06-02 03:43,435.00,-31
1591062258,2020-06-02 03:44,432.00,-30
1591062318,2020-06-02 03:45,435.00,-30
1591062379,2020-06-02 03:46,436.00,-27
1591062439,2020-06-02 03:47,437.00,-28
1591062499,2020-06-02 03:48,436.00,-29
1591062559,2020-06-02 03:49,436.00,-30
1591062619,2020-06-02 03:50,437.00,-31
1591062679,2020-06-02 03:51,434.00,-31
1591062739,2020-06-02 03:52,435.00,-29
1591062799,2020-06-02 03:53,435.00,-27
1591062859,2020-06-02 03:54,437.00,-31
1591062919,2020-06-02 03:55,439.00,-28
1591062979,2020-06-02 03:56,438.00,-28
1591063039,2020-06-02 03:57,440.00,-26
1591063099,2020-06-02 03:58,439.00,-34
1591063159,2020-06-02 03:59,436.00,-33
1591063219,2020-06-02 04:00,435.00,-31
1591063279,2020-06-02 04:01,435.00,-30
1591063339,2020-06-02 04:02,436.00,-32
1591063400,2020-06-02 04:03,438.00,-28
1591063460,2020-06-02 04:04,440.00,-28
1591063520,2020-06-02 04:05,438.00,-30
1591063580,2020-06-02 04:06,440.00,-31
1591063640,2020-06-02 04:07,441.00,-31
1591063700,2020-06-02 04:08,438.00,-30
1591063760,2020-06-02 04:09,439.00,-27
1591063820,2020-06-02 04:10,436.00,-30
1591063880,2020-06-02 04:11,436.00,-30
1591063940,2020-06-02 04:12,430.00,-28
1591064000,2020-06-02 04:13,431.00,-33
1591064060,2020-06-02 04:14,428.00,-29
1591064120,2020-06-02 04:15,427.00,-34
1591064180,2020-06-02 04:16,425.00,-32
1591064240,2020-06-02 04:17,425.00,-32
1591064300,2020-06-02 04:18,426.00,-30
1591064360,2020-06-02 04:19,430.00,-35
1591064420,2020-06-02 04:20,426.00,-33
1591064480,2020-06-02 04:21,428.00,-30
1591064540,2020-06-02 04:22,429.00,-33
1591064600,2020-06-02 04:23,432.00,-33
1591064660,2020-06-02 04:24,432.00,-29
1591064721,2020-06-02 04:25,432.00,-33
1591064781,2020-06-02 04:26,432.00,-29
1591064841,2020-06-02 04:27,434.00,-32
1591064901,2020-06-02 04:28,435.00,-30
1591064961,2020-06-02 04:29,435.00,-30
1591065021,2020-06-02 04:30,431.00,-30
1591065081,2020-06-02 04:31,430.00,-32
1591065141,2020-06-02 04:32,431.00,-33
1591065201,2020-06-02 04:33,428.00,-28
1591065261,2020-06-02 04:34,428.00,-28
1591065321,2020-06-02 04:35,430.00,-32
1591065381,2020-06-02 04:36,429.00,-34
1591065441,2020-06-02 04:37,429.00,-31
1591065501,2020-06-02 04:38,431.00,-29
1591065561,2020-06-02 04:39,429.00,-31
1591065621,2020-06-02 04:40,420.00,-33
1591065681,2020-06-02 04:41,419.00,-29
1591065741,2020-06-02 04:42,421.00,-29
1591065801,2020-06-02 04:43,422.00,-30
1591065861,2020-06-02 04:44,423.00,-31
1591065922,2020-06-02 04:45,421.00,-27
1591065982,2020-06-02 04:46,421.00,-31
1591066042,2020-06-02 04:47,424.00,-31
1591066102,2020-06-02 04:48,423.00,-33
1591066162,2020-06-02 04:49,425.00,-28
1591066222,2020-06-02 04:50,422.00,-28
1591066282,2020-06-02 04:51,423.00,-29
1591066342,2020-06-02 04:52,421.00,-32
1591066402,2020-06-02 04:53,422.00,-29
1591066462,2020-06-02 04:54,423.00,-31
1591066522,2020-06-02 04:55,422.00,-29
1591066582,2020-06-02 04:56,424.00,-30
1591066642,2020-06-02 04:57,423.00,-34
1591066702,2020-06-02 04:58,424.00,-31
1591066763,2020-06-02 04:59,423.00,-29
1591066823,2020-06-02 05:00,426.00,-29
1591066883,2020-06-02 05:01,422.00,-29
1591066943,2020-06-02 05:02,423.00,-28
1591067003,2020-06-02 05:03,422.00,-31
1591067063,2020-06-02 05:04,425.00,-30
1591067123,2020-06-02 05:05,426.00,-30
1591067183,2020-06-02 05:06,426.00,-35
1591067243,2020-06-02 05:07,426.00,-29
1591067303,2020-06-02 05:08,423.00,-31
1591067363,2020-06-02 05:09,425.00,-34
1591067423,2020-06-02 05:10,427.00,-30
1591067483,2020-06-02 05:11,425.00,-33
1591067543,2020-06-02 05:12,425.00,-28
1591067603,2020-06-02 05:13,425.00,-27
1591067664,2020-06-02 05:14,425.00,-30
1591067724,2020-06-02 05:15,424.00,-31
1591067784,2020-06-02 05:16,426.00,-31
1591067845,2020-06-02 05:17,426.00,-29
1591067905,2020-06-02 05:18,425.00,-27
1591067965,2020-06-02 05:19,426.00,-29
1591068025,2020-06-02 05:20,422.00,-30
1591068085,2020-06-02 05:21,422.00,-28
1591068145,2020-06-02 05:22,421.00,-30
1591068205,2020-06-02 05:23,423.00,-31
1591068265,2020-06-02 05:24,422.00,-31
1591068325,2020-06-02 05:25,423.00,-30
1591068385,2020-06-02 05:26,420.00,-33
1591068445,2020-06-02 05:27,423.00,-35
1591068505,2020-06-02 05:28,423.00,-32
1591068565,2020-06-02 05:29,421.00,-29
1591068625,2020-06-02 05:30,419.00,-31
1591068685,2020-06-02 05:31,421.00,-34
1591068745,2020-06-02 05:32,419.00,-32
1591068805,2020-06-02 05:33,421.00,-31
1591068865,2020-06-02 05:34,419.00,-28
1591068926,2020-06-02 05:35,420.00,-33
1591068986,2020-06-02 05:36,419.00,-32
1591069046,2020-06-02 05:37,418.00,-31
1591069106,2020-06-02 05:38,418.00,-34
1591069166,2020-06-02 05:39,418.00,-33
1591069226,2020-06-02 05:40,418.00,-30
1591069286,2020-06-02 05:41,420.00,-29
1591069346,2020-06-02 05:42,419.00,-33
1591069406,2020-06-02 05:43,420.00,-33
1591069466,2020-06-02 05:44,419.00,-31
1591069526,2020-06-02 05:45,419.00,-33
1591069586,2020-06-02 05:46,419.00,-30
1591069646,2020-06-02 05:47,417.00,-30
1591069706,2020-06-02 05:48,415.00,-33
1591069766,2020-06-02 05:49,418.00,-28
1591069826,2020-06-02 05:50,417.00,-31
1591069886,2020-06-02 05:51,415.00,-29
1591069946,2020-06-02 05:52,418.00,-33
1591070006,2020-06-02 05:53,419.00,-34
1591070066,2020-06-02 05:54,419.00,-28
1591070126,2020-06-02 05:55,418.00,-32
1591070186,2020-06-02 05:56,417.00,-32
1591070246,2020-06-02 05:57,417.00,-29
1591070307,2020-06-02 05:58,417.00,-33
1591070367,2020-06-02 05:59,418.00,-34
1591070427,2020-06-02 06:00,419.00,-30
1591070487,2020-06-02 06:01,417.00,-30
1591070547,2020-06-02 06:02,417.00,-30
1591070607,2020-06-02 06:03,417.00,-33
1591070667,2020-06-02 06:04,418.00,-28
1591070727,2020-06-02 06:05,416.00,-30
1591070787,2020-06-02 06:06,414.00,-30
1591070847,2020-06-02 06:07,415.00,-31
1591070907,2020-06-02 06:08,414.00,-30
1591070967,2020-06-02 06:09,416.00,-30
1591071027,2020-06-02 06:10,413.00,-34
1591071087,2020-06-02 06:11,414.00,-32
1591071147,2020-06-02 06:12,413.00,-34
1591071208,2020-06-02 06:13,414.00,-27
1591071268,2020-06-02 06:14,412.00,-34
1591071328,2020-06-02 06:15,416.00,-34
1591071388,2020-06-02 06:16,413.00,-33
1591071448,2020-06-02 06:17,416.00,-30
1591071508,2020-06-02 06:18,413.00,-31
1591071568,2020-06-02 06:19,416.00,-32
1591071628,2020-06-02 06:20,418.00,-34
1591071688,2020-06-02 06:21,417.00,-32
1591071749,2020-06-02 06:22,418.00,-30
1591071809,2020-06-02 06:23,415.00,-30
1591071869,2020-06-02 06:24,417.00,-29
1591071929,2020-06-02 06:25,416.00,-29
1591071989,2020-06-02 06:26,414.00,-34
1591072049,2020-06-02 06:27,416.00,-33
1591072109,2020-06-02 06:28,418.00,-28
1591072169,2020-06-02 06:29,417.00,-30
1591072229,2020-06-02 06:30,417.00,-34
1591072289,2020-06-02 06:31,414.00,-32
1591072349,2020-06-02 06:32,417.00,-30
1591072409,2020-06-02 06:33,415.00,-33
1591072469,2020-06-02 06:34,416.00,-31
1591072529,2020-06-02 06:35,416.00,-30
1591072590,2020-06-02 06:36,417.00,-28
1591072650,2020-06-02 06:37,417.00,-28
1591072710,2020-06-02 06:38,416.00,-28
1591072770,2020-06-02 06:39,415.00,-30
1591072830,2020-06-02 06:40,419.00,-30
1591072890,2020-06-02 06:41,418.00,-31
1591072950,2020-06-02 06:42,416.00,-29
1591073010,2020-06-02 06:43,416.00,-30
1591073070,2020-06-02 06:44,416.00,-29
1591073131,2020-06-02 06:45,420.00,-33
1591073191,2020-06-02 06:46,418.00,-30
1591073251,2020-06-02 06:47,418.00,-31
1591073311,2020-06-02 06:48,419.00,-28
1591073371,2020-06-02 06:49,413.00,-30
1591073431,2020-06-02 06:50,415.00,-35
1591073491,2020-06-02 06:51,416.00,-29
1591073551,2020-06-02 06:52,414.00,-33
1591073611,2020-06-02 06:53,414.00,-32
1591073671,2020-06-02 06:54,414.00,-31
1591073731,2020-06-02 06:55,411.00,-32
1591073791,2020-06-02 06:56,414.00,-29
1591073851,2020-06-02 06:57,412.00,-27
1591073912,2020-06-02 06:58,415.00,-34
1591073972,2020-06-02 06:59,415.00,-33
1591074032,2020-06-02 07:00,414.00,-32
1591074092,2020-06-02 07:01,413.00,-29
1591074152,2020-06-02 07:02,414.00,-31
1591074212,2020-06-02 07:03,411.00,-29
1591074273,2020-06-02 07:04,412.00,-33
1591074333,2020-06-02 07:05,414.00,-28
1591074393,2020-06-02 07:06,412.00,-30
1591074454,2020-06-02 07:07,416.00,-31
1591074514,2020-06-02 07:08,414.00,-31
1591074574,2020-06-02 07:09,417.00,-31
1591074634,2020-06-02 07:10,417.00,-32
1591074694,2020-06-02 07:11,419.00,-31
1591074754,2020-06-02 07:12,417.00,-32
1591074814,2020-06-02 07:13,416.00,-31
1591074874,2020-06-02 07:14,416.00,-31
1591074934,2020-06-02 07:15,418.00,-31
1591074994,2020-06-02 07:16,417.00,-29
1591075055,2020-06-02 07:17,416.00,-32
1591075115,2020-06-02 07:18,416.00,-29
1591075175,2020-06-02 07:19,415.00,-30
1591075235,2020-06-02 07:20,415.00,-30
1591075295,2020-06-02 07:21,416.00,-29
1591075355,2020-06-02 07:22,415.00,-32
1591075416,2020-06-02 07:23,416.00,-34
1591075476,2020-06-02 07:24,415.00,-32
1591075536,2020-06-02 07:25,416.00,-30
1591075596,2020-06-02 07:26,416.00,-32
1591075656,2020-06-02 07:27,412.00,-34
1591075716,2020-06-02 07:28,416.00,-33
1591075777,2020-06-02 07:29,416.00,-37
1591075837,2020-06-02 07:30,416.00,-33
1591075897,2020-06-02 07:31,416.00,-30
1591075957,2020-06-02 07:32,414.00,-31
1591076017,2020-06-02 07:33,416.00,-32
1591076077,2020-06-02 07:34,415.00,-31
1591076137,2020-06-02 07:35,414.00,-30
1591076197,2020-06-02 07:36,410.00,-32
1591076257,2020-06-02 07:37,410.00,-30
1591076317,2020-06-02 07:38,413.00,-32
1591076377,2020-06-02 07:39,409.00,-31
1591076438,2020-06-02 07:40,411.00,-28
1591076498,2020-06-02 07:41,413.00,-33
1591076558,2020-06-02 07:42,409.00,-31
1591076618,2020-06-02 07:43,409.00,-29
1591076678,2020-06-02 07:44,415.00,-31
1591076738,2020-06-02 07:45,413.00,-31
1591076798,2020-06-02 07:46,412.00,-31
1591076858,2020-06-02 07:47,413.00,-29
1591076918,2020-06-02 07:48,415.00,-33
1591076979,2020-06-02 07:49,413.00,-30
1591077039,2020-06-02 07:50,412.00,-32
1591077099,2020-06-02 07:51,413.00,-36
1591077159,2020-06-02 07:52,412.00,-30
1591077219,2020-06-02 07:53,411.00,-30
1591077279,2020-06-02 07:54,407.00,-31
1591077339,2020-06-02 07:55,407.00,-32
1591077399,2020-06-02 07:56,405.00,-30
1591077459,2020-06-02 07:57,406.00,-31
1591077519,2020-06-02 07:58,408.00,-30
1591077579,2020-06-02 07:59,404.00,-29
1591077640,2020-06-02 08:00,410.00,-30
1591077700,2020-06-02 08:01,410.00,-28
1591077760,2020-06-02 08:02,409.00,-33
1591077820,2020-06-02 08:03,407.00,-34
1591077880,2020-06-02 08:04,406.00,-35
1591077940,2020-06-02 08:05,410.00,-28
1591078000,2020-06-02 08:06,405.00,-34
1591078060,2020-06-02 08:07,406.00,-31
1591078120,2020-06-02 08:08,407.00,-35
1591078180,2020-06-02 08:09,405.00,-34
1591078240,2020-06-02 08:10,405.00,-34
1591078300,2020-06-02 08:11,409.00,-33
1591078360,2020-06-02 08:12,404.00,-28
1591078420,2020-06-02 08:13,404.00,-34
1591078481,2020-06-02 08:14,406.00,-32
1591078541,2020-06-02 08:15,404.00,-30
1591078601,2020-06-02 08:16,407.00,-31
1591078661,2020-06-02 08:17,408.00,-29
1591078721,2020-06-02 08:18,406.00,-30
1591078781,2020-06-02 08:19,408.00,-33
1591078841,2020-06-02 08:20,405.00,-33
1591078901,2020-06-02 08:21,405.00,-30
1591078961,2020-06-02 08:22,407.00,-31
1591079021,2020-06-02 08:23,404.00,-30
1591079082,2020-06-02 08:24,404.00,-30
1591079142,2020-06-02 08:25,403.00,-36
1591079202,2020-06-02 08:26,404.00,-31
1591079262,2020-06-02 08:27,406.00,-28
1591079322,2020-06-02 08:28,407.00,-29
1591079382,2020-06-02 08:29,404.00,-32
1591079442,2020-06-02 08:30,403.00,-32
1591079502,2020-06-02 08:31,405.00,-34
1591079563,2020-06-02 08:32,403.00,-33
1591079623,2020-06-02 08:33,404.00,-35
1591079683,2020-06-02 08:34,401.00,-29
1591079743,2020-06-02 08:35,402.00,-30
1591079803,2020-06-02 08:36,400.00,-30
1591079863,2020-06-02 08:37,402.00,-28
1591079923,2020-06-02 08:38,404.00,-34
1591079983,2020-06-02 08:39,400.00,-30
1591080043,2020-06-02 08:40,401.00,-28
1591080103,2020-06-02 08:41,404.00,-31
1591080163,2020-06-02 08:42,403.00,-33
1591080223,2020-06-02 08:43,403.00,-31
1591080283,2020-06-02 08:44,403.00,-33
1591080344,2020-06-02 08:45,406.00,-34
1591080404,2020-06-02 08:46,405.00,-34
1591080464,2020-06-02 08:47,402.00,-35
1591080524,2020-06-02 08:48,399.00,-33
1591080584,2020-06-02 08:49,399.00,-29
1591080644,2020-06-02 08:50,410.00,-31
1591080704,2020-06-02 08:51,410.00,-29
1591080764,2020-06-02 08:52,410.00,-33
1591080824,2020-06-02 08:53,405.00,-35
1591080884,2020-06-02 08:54,407.00,-28
1591080944,2020-06-02 08:55,408.00,-31
1591081004,2020-06-02 08:56,406.00,-36
1591081064,2020-06-02 08:57,406.00,-31
1591081124,2020-06-02 08:58,411.00,-32
1591081184,2020-06-02 08:59,408.00,-32
1591081245,2020-06-02 09:00,405.00,-31
1591081305,2020-06-02 09:01,406.00,-31
1591081365,2020-06-02 09:02,408.00,-28
1591081425,2020-06-02 09:03,407.00,-30
1591081485,2020-06-02 09:04,407.00,-32
1591081545,2020-06-02 09:05,406.00,-30
1591081605,2020-06-02 09:06,410.00,-29
1591081665,2020-06-02 09:07,407.00,-34
1591081725,2020-06-02 09:08,407.00,-32
1591081786,2020-06-02 09:09,407.00,-32
1591081846,2020-06-02 09:10,410.00,-32
1591081906,2020-06-02 09:11,408.00,-29
1591082029,2020-06-02 09:13,412.00,-31
1591082089,2020-06-02 09:14,410.00,-31
1591082149,2020-06-02 09:15,410.00,-30
1591082209,2020-06-02 09:16,411.00,-31
1591082269,2020-06-02 09:17,412.00,-29
1591082330,2020-06-02 09:18,413.00,-31
1591082390,2020-06-02 09:19,413.00,-30
1591082450,2020-06-02 09:20,412.00,-29
1591082510,2020-06-02 09:21,409.00,-30
1591082571,2020-06-02 09:22,409.00,-27
1591082631,2020-06-02 09:23,410.00,-30
1591082691,2020-06-02 09:24,410.00,-31
1591082751,2020-06-02 09:25,412.00,-31
1591082812,2020-06-02 09:26,413.00,-32
1591082872,2020-06-02 09:27,412.00,-33
1591082932,2020-06-02 09:28,409.00,-31
1591082992,2020-06-02 09:29,407.00,-30
1591083053,2020-06-02 09:30,405.00,-30
1591083115,2020-06-02 09:31,407.00,-31
1591083175,2020-06-02 09:32,408.00,-31
1591083235,2020-06-02 09:33,407.00,-30
1591083296,2020-06-02 09:34,407.00,-29
1591083356,2020-06-02 09:35,413.00,-29
1591083416,2020-06-02 09:36,413.00,-31
1591083476,2020-06-02 09:37,411.00,-30
1591083536,2020-06-02 09:38,410.00,-33
1591083596,2020-06-02 09:39,410.00,-28
1591083656,2020-06-02 09:40,408.00,-34
1591083717,2020-06-02 09:41,410.00,-29
1591083777,2020-06-02 09:42,407.00,-33
1591083837,2020-06-02 09:43,405.00,-31
1591083897,2020-06-02 09:44,407.00,-30
1591083957,2020-06-02 09:45,408.00,-29
1591084017,2020-06-02 09:46,406.00,-34
1591084077,2020-06-02 09:47,411.00,-30
1591084137,2020-06-02 09:48,409.00,-28
1591084198,2020-06-02 09:49,412.00,-32
1591084258,2020-06-02 09:50,410.00,-30
1591084318,2020-06-02 09:51,410.00,-33
1591084378,2020-06-02 09:52,408.00,-30
1591084438,2020-06-02 09:53,406.00,-34
1591084498,2020-06-02 09:54,410.00,-32
1591084558,2020-06-02 09:55,407.00,-30
1591084618,2020-06-02 09:56,412.00,-32
1591084678,2020-06-02 09:57,411.00,-33
1591084739,2020-06-02 09:58,410.00,-35
1591084799,2020-06-02 09:59,412.00,-31
1591084859,2020-06-02 10:00,420.00,-29
1591084919,2020-06-02 10:01,420.00,-30
1591084979,2020-06-02 10:02,417.00,-29
1591085039,2020-06-02 10:03,419.00,-33
1591085099,2020-06-02 10:04,421.00,-35
1591085159,2020-06-02 10:05,420.00,-30
1591085220,2020-06-02 10:07,418.00,-32
1591085280,2020-06-02 10:08,419.00,-28
1591085340,2020-06-02 10:09,418.00,-32
1591085400,2020-06-02 10:10,419.00,-30
1591085460,2020-06-02 10:11,417.00,-30
1591085520,2020-06-02 10:12,421.00,-32
1591085580,2020-06-02 10:13,418.00,-27
1591085640,2020-06-02 10:14,417.00,-32
1591085701,2020-06-02 10:15,417.00,-30
1591085761,2020-06-02 10:16,418.00,-29